Weather History for KHYA - February, 2013

Change the Weather History Date:

Sunday, February 17, 2013

  Actual Average Record
Temperature  
Mean Temperature 28 °F -  
Max Temperature 35 °F 40 °F 56 °F (1976)
Min Temperature 19 °F 21 °F 1 °F (1979)
Degree Days  
Heating Degree Days 37    
Moisture  
Dew Point 21 °F    
Average Humidity 80    
Maximum Humidity 96    
Minimum Humidity 37    
Precipitation  
Precipitation 0.05 in - - ()
Sea Level Pressure  
Sea Level Pressure 29.37 in    
Wind  
Wind Speed 22 mph (NNW)    
Max Wind Speed 31 mph    
Max Gust Speed 51 mph    
Visibility 3 miles    
Events Fog , Rain , Snow    
Averages and records for this station are not official NWS values.
T = Trace of Precipitation, MM = Missing Value Source: NWS Daily Summary

Daily Weather History Graph

Daily Weather History Graph

Search for Another Location

Airport or City:

Trip Planner

Search our weather history database for the weather conditions in past years. The results will help you decide how hot, cold, wet, or windy it might be!

Date:

Astronomy

Feb. 17, 2013 Rise Set
Actual Time 6:33 AM EST 5:17 PM EST
Civil Twilight 6:05 AM EST 5:45 PM EST
Nautical Twilight 5:32 AM EST 6:18 PM EST
Astronomical Twilight 5:00 AM EST 6:50 PM EST
Moon 10:17 AM EST (2/17) 12:16 AM EST (2/17)
Length of Visible Light 11h 40m
Length of Day
10h 43m
Waxing Crescent, 49% of the Moon is Illuminated
Feb 17
Waxing Crescent
Feb 17
First Quarter
Feb 25
Full
Mar 4
Last Quarter
Mar 11
New

Hourly Weather History & Observations

Time (EST) Temp. Windchill Dew Point Humidity Pressure Visibility Wind Dir Wind Speed Gust Speed Precip Events Conditions
12:04 AM 35.6 °F 24.8 °F 33.8 °F 93% 29.58 in 7.0 mi North 19.6 mph 27.6 mph 0.00 in Rain Light Rain
12:11 AM 35.6 °F 25.9 °F 33.8 °F 93% 29.57 in 8.0 mi North 16.1 mph 28.8 mph 0.00 in Rain Light Rain
12:56 AM 35.1 °F 25.2 °F 33.1 °F 92% 29.58 in 9.0 mi NNE 16.1 mph 26.5 mph 0.00 in Rain Light Rain
1:25 AM 35.6 °F 25.2 °F 32.0 °F 87% 29.55 in 10.0 mi NNE 18.4 mph 32.2 mph 0.00 in Rain Light Rain
1:56 AM 35.1 °F 23.3 °F 32.0 °F 89% 29.52 in 10.0 mi North 23.0 mph 35.7 mph 0.00 in Rain Light Rain
2:56 AM 34.0 °F 22.1 °F 30.9 °F 89% 29.48 in 10.0 mi North 21.9 mph 34.5 mph 0.00 in Rain Light Rain
3:56 AM 33.1 °F 19.8 °F 30.0 °F 89% 29.42 in 2.5 mi North 26.5 mph 34.5 mph 0.00 in Rain Light Rain
3:59 AM 33.8 °F 21.9 °F 30.2 °F 87% 29.41 in 2.0 mi North 21.9 mph 34.5 mph 0.00 in Rain Light Rain
4:08 AM 33.8 °F 20.8 °F 30.2 °F 87% 29.40 in 1.8 mi North 26.5 mph 39.1 mph 0.00 in Rain Light Rain
4:25 AM 32.0 °F 18.6 °F 30.2 °F 93% 29.39 in 0.8 mi North 25.3 mph 42.6 mph 0.00 in Rain Light Rain
4:56 AM 30.0 °F 14.9 °F 28.9 °F 96% 29.39 in 1.0 mi North 29.9 mph 42.6 mph 0.01 in Rain Light Freezing Rain
5:18 AM 30.2 °F 16.2 °F 28.4 °F 93% 29.35 in 1.0 mi North 25.3 mph 47.2 mph 0.00 in Rain Light Freezing Rain
5:28 AM 30.2 °F 15.2 °F 28.4 °F 93% 29.33 in 0.8 mi North 29.9 mph 49.5 mph 0.00 in Rain Light Freezing Rain
5:56 AM 28.0 °F 12.0 °F 26.1 °F 92% 29.32 in 0.8 mi North 31.1 mph 47.2 mph 0.00 in Rain Light Freezing Rain
6:09 AM 28.4 °F 13.5 °F 26.6 °F 93% 29.30 in 0.8 mi North 26.5 mph 46.0 mph 0.00 in Rain Light Freezing Rain
6:22 AM 28.4 °F 13.8 °F 26.6 °F 93% 29.31 in 1.0 mi North 25.3 mph 50.6 mph 0.00 in Snow Light Snow
6:56 AM 28.0 °F 12.5 °F 25.0 °F 88% 29.28 in 0.8 mi North 28.8 mph 48.3 mph 0.00 in Snow Light Snow
7:05 AM 28.4 °F 12.5 °F 24.8 °F 86% 29.27 in 0.5 mi North 31.1 mph 49.5 mph 0.00 in Snow Light Snow
7:14 AM 26.6 °F 10.8 °F 24.8 °F 93% 29.27 in 0.5 mi North 27.6 mph 48.3 mph 0.00 in Snow Light Snow
7:35 AM 26.6 °F 10.0 °F 24.8 °F 93% 29.23 in 0.2 mi NNW 31.1 mph 49.5 mph 0.00 in Snow Light Snow
7:47 AM 26.6 °F 11.7 °F 24.8 °F 93% 29.25 in 0.2 mi NNW 24.2 mph 47.2 mph 0.00 in Snow Light Snow
7:56 AM 26.1 °F 9.8 °F 24.1 °F 92% 29.24 in 0.2 mi NNW 28.8 mph 47.2 mph 0.00 in Snow Light Snow
8:56 AM 25.0 °F 8.9 °F 23.0 °F 92% 29.21 in 0.2 mi NNW 26.5 mph 44.9 mph 0.00 in Snow Light Snow
9:04 AM 24.8 °F 8.4 °F 21.2 °F 86% 29.21 in 0.2 mi NNW 27.6 mph 48.3 mph 0.00 in Snow Light Snow
9:13 AM 24.8 °F 9.3 °F 21.2 °F 86% 29.21 in 0.5 mi NNW 24.2 mph 42.6 mph 0.00 in Snow Light Snow
9:31 AM 24.8 °F 8.1 °F 21.2 °F 86% 29.22 in 0.2 mi NNW 28.8 mph 42.6 mph 0.00 in Snow Light Snow
9:51 AM 24.8 °F 10.7 °F 21.2 °F 86% 29.23 in 0.2 mi NNW 19.6 mph 34.5 mph 0.01 in Snow Light Snow
9:56 AM 24.1 °F 8.7 °F 21.9 °F 91% 29.24 in 0.2 mi NNW 23.0 mph 36.8 mph 0.01 in Snow Light Snow
10:56 AM 23.0 °F 8.7 °F 19.9 °F 88% 29.27 in 0.2 mi NW 18.4 mph 29.9 mph 0.02 in Snow Light Snow
11:56 AM 21.9 °F 6.9 °F 19.0 °F 89% 29.27 in 0.2 mi WNW 19.6 mph 31.1 mph 0.00 in Snow Light Snow
12:11 PM 21.2 °F 6.4 °F 19.4 °F 93% 29.28 in 0.5 mi WNW 18.4 mph 32.2 mph 0.00 in Snow Light Snow
12:36 PM 21.2 °F 6.4 °F 19.4 °F 93% 29.28 in 0.2 mi WNW 18.4 mph 28.8 mph 0.00 in Snow Light Snow
12:56 PM 21.9 °F 6.5 °F 19.0 °F 89% 29.30 in 0.2 mi WNW 20.7 mph 33.4 mph 0.01 in Snow Light Snow
1:26 PM 21.2 °F 8.3 °F 19.4 °F 93% 29.29 in 0.5 mi WNW 13.8 mph 28.8 mph 0.00 in Fog Light Freezing Fog
1:56 PM 23.0 °F 8.7 °F 18.0 °F 81% 29.31 in 0.8 mi WNW 18.4 mph 35.7 mph 0.00 in   Haze
2:18 PM 23.0 °F 9.2 °F 17.6 °F 80% 29.32 in 1.2 mi WNW 17.3 mph 32.2 mph N/A   Haze
2:50 PM 24.8 °F 10.0 °F 15.8 °F 69% 29.32 in 2.0 mi WNW 21.9 mph 33.4 mph N/A   Haze
2:56 PM 24.1 °F 8.3 °F 15.1 °F 69% 29.34 in 2.5 mi West 24.2 mph 33.4 mph N/A   Haze
3:04 PM 24.8 °F 10.7 °F 14.0 °F 64% 29.33 in 4.0 mi WNW 19.6 mph 33.4 mph N/A   Haze
3:38 PM 23.0 °F 8.7 °F 12.2 °F 63% 29.36 in 2.0 mi WNW 18.4 mph 36.8 mph N/A   Haze
3:50 PM 23.0 °F 6.9 °F 10.4 °F 59% 29.36 in 4.0 mi WNW 24.2 mph 34.5 mph N/A   Haze
3:56 PM 23.0 °F 9.6 °F 10.9 °F 60% 29.38 in 3.0 mi WNW 16.1 mph 34.5 mph N/A   Haze
4:56 PM 24.1 °F 11.5 °F 9.0 °F 53% 29.41 in 3.0 mi WNW 15.0 mph 33.4 mph N/A   Haze
5:56 PM 24.1 °F 9.0 °F 6.1 °F 46% 29.45 in 5.0 mi WNW 21.9 mph 38.0 mph N/A   Haze
6:56 PM 25.0 °F 10.9 °F 6.1 °F 45% 29.48 in 5.0 mi WNW 19.6 mph 38.0 mph N/A   Haze
7:56 PM 26.1 °F 12.7 °F 3.9 °F 39% 29.49 in 8.0 mi WNW 18.4 mph 38.0 mph 0.00 in Snow Light Snow
8:56 PM 25.0 °F 11.3 °F 1.9 °F 37% 29.53 in 5.0 mi WNW 18.4 mph 32.2 mph 0.00 in Snow Light Snow
9:56 PM 23.0 °F 10.6 °F 3.9 °F 44% 29.57 in 9.0 mi West 13.8 mph 23.0 mph 0.00 in Snow Light Snow
10:56 PM 21.9 °F 9.2 °F 3.9 °F 46% 29.60 in 9.0 mi WNW 13.8 mph 21.9 mph 0.00 in Snow Light Snow
11:56 PM 19.9 °F 6.7 °F 3.0 °F 48% 29.62 in 9.0 mi WNW 13.8 mph 25.3 mph 0.00 in Snow Light Snow